| time (UTC) | temp F | wind direction | speed knots | gust knots | rain 1hr in | rain 24hr in | rain mn in | humidity % | barometer mb |
| 20260507080214 | 49 | 119 | 8.7 | 12.2 | 0.00 | 0.01 | 0.00 | 26 | 1021.0 |
| 20260507075727 | 50 | 119 | 9.6 | 12.2 | 0.00 | 0.01 | 0.00 | 26 | 1021.0 |
| 20260507075225 | 50 | 119 | 8.7 | 12.2 | 0.00 | 0.01 | 0.00 | 26 | 1021.0 |
| 20260507074738 | 49 | 117 | 9.6 | 11.3 | 0.00 | 0.01 | 0.00 | 26 | 1021.1 |
| 20260507074231 | 49 | 113 | 8.7 | 11.3 | 0.00 | 0.01 | 0.00 | 27 | 1021.1 |
| 20260507073725 | 49 | 113 | 7.8 | 11.3 | 0.00 | 0.01 | 0.00 | 27 | 1021.2 |
| 20260507073239 | 49 | 113 | 8.7 | 11.3 | 0.00 | 0.01 | 0.00 | 26 | 1021.2 |
| 20260507072732 | 49 | 111 | 7.0 | 10.4 | 0.00 | 0.01 | 0.00 | 26 | 1021.2 |
| 20260507072246 | 49 | 111 | 7.8 | 10.4 | 0.00 | 0.01 | 0.00 | 26 | 1021.3 |
| 20260507071718 | 49 | 111 | 7.8 | 11.3 | 0.00 | 0.01 | 0.00 | 26 | 1021.3 |
| 20260507071232 | 50 | 110 | 8.7 | 11.3 | 0.00 | 0.01 | 0.00 | 26 | 1021.2 |
| 20260507070726 | 50 | 110 | 7.8 | 10.4 | 0.00 | 0.01 | 0.00 | 25 | 1021.3 |
| 20260507070226 | 50 | 110 | 7.0 | 8.7 | 0.00 | 0.01 | 0.00 | 25 | 1021.2 |
| 20260507065719 | 50 | 110 | 6.1 | 9.6 | 0.00 | 0.01 | 0.00 | 25 | 1021.3 |
| 20260507065214 | 50 | 110 | 7.0 | 9.6 | 0.00 | 0.01 | 0.00 | 24 | 1021.3 |
| 20260507064727 | 50 | 110 | 5.2 | 10.4 | 0.00 | 0.01 | 0.00 | 24 | 1021.2 |
| 20260507064239 | 50 | 110 | 7.8 | 10.4 | 0.00 | 0.01 | 0.00 | 25 | 1021.2 |
| 20260507063732 | 50 | 110 | 7.0 | 11.3 | 0.00 | 0.01 | 0.00 | 25 | 1021.2 |
| 20260507063226 | 50 | 110 | 8.7 | 11.3 | 0.00 | 0.01 | 0.00 | 25 | 1021.2 |
| 20260507062721 | 51 | 109 | 8.7 | 11.3 | 0.00 | 0.01 | 0.00 | 24 | 1021.1 |
| 20260507062239 | 51 | 101 | 5.2 | 10.4 | 0.00 | 0.01 | 0.00 | 23 | 1021.1 |
| 20260507061732 | 50 | 101 | 7.8 | 10.4 | 0.00 | 0.01 | 0.00 | 23 | 1021.0 |
| 20260507061227 | 51 | 99 | 7.0 | 10.4 | 0.00 | 0.01 | 0.00 | 22 | 1021.1 |
| 20260507060720 | 51 | 98 | 8.7 | 10.4 | 0.00 | 0.01 | 0.00 | 22 | 1021.0 |
| 20260507060216 | 51 | 93 | 5.2 | 7.8 | 0.00 | 0.01 | 0.00 | 22 | 1021.0 |
| 20260507055729 | 50 | 93 | 4.3 | 7.8 | 0.00 | 0.01 | 0.01 | 22 | 1021.0 |
| 20260507055223 | 49 | 93 | 6.1 | 7.0 | 0.00 | 0.01 | 0.01 | 23 | 1021.0 |
| 20260507054717 | 49 | 93 | 2.6 | 5.2 | 0.00 | 0.01 | 0.01 | 23 | 1021.0 |
| 20260507054214 | 49 | 93 | 1.7 | 5.2 | 0.00 | 0.01 | 0.01 | 23 | 1021.0 |
| 20260507053748 | 51 | 93 | 2.6 | 6.1 | 0.00 | 0.01 | 0.01 | 20 | 1021.0 |
| 20260507053241 | 52 | 93 | 5.2 | 7.8 | 0.00 | 0.01 | 0.01 | 18 | 1020.9 |
| 20260507052713 | 52 | 93 | 5.2 | 7.8 | 0.00 | 0.01 | 0.01 | 18 | 1021.0 |
| 20260507052228 | 52 | 93 | 5.2 | 7.8 | 0.00 | 0.01 | 0.01 | 19 | 1020.9 |
| 20260507051721 | 52 | 93 | 5.2 | 7.0 | 0.00 | 0.01 | 0.01 | 19 | 1020.9 |
| 20260507051216 | 52 | 93 | 4.3 | 7.0 | 0.00 | 0.01 | 0.01 | 19 | 1020.9 |
| 20260507050731 | 51 | 93 | 6.1 | 7.8 | 0.00 | 0.01 | 0.01 | 19 | 1021.0 |
| 20260507050226 | 51 | 93 | 5.2 | 7.8 | 0.00 | 0.01 | 0.01 | 19 | 1021.0 |
| 20260507045723 | 51 | 93 | 6.1 | 7.8 | 0.00 | 0.01 | 0.01 | 19 | 1021.1 |
| 20260507045219 | 51 | 93 | 6.1 | 7.8 | 0.00 | 0.01 | 0.01 | 19 | 1021.0 |
| 20260507044712 | 51 | 93 | 4.3 | 8.7 | 0.00 | 0.01 | 0.01 | 19 | 1021.1 |
| 20260507044226 | 51 | 93 | 5.2 | 9.6 | 0.00 | 0.01 | 0.01 | 19 | 1021.1 |
| 20260507043721 | 51 | 93 | 7.0 | 9.6 | 0.00 | 0.01 | 0.01 | 19 | 1021.1 |
| 20260507043215 | 51 | 93 | 6.1 | 8.7 | 0.00 | 0.01 | 0.01 | 19 | 1021.0 |
| 20260507042728 | 51 | 92 | 5.2 | 7.8 | 0.00 | 0.01 | 0.01 | 19 | 1020.9 |
| 20260507042221 | 52 | 93 | 6.1 | 7.8 | 0.00 | 0.01 | 0.01 | 19 | 1021.0 |
| 20260507041719 | 52 | 93 | 6.1 | 7.8 | 0.00 | 0.01 | 0.01 | 19 | 1021.0 |
| 20260507041213 | 51 | 93 | 6.1 | 10.4 | 0.00 | 0.01 | 0.01 | 20 | 1021.0 |
| 20260507040727 | 51 | 93 | 7.0 | 10.4 | 0.00 | 0.01 | 0.01 | 20 | 1021.0 |
| 20260507040243 | 51 | 89 | 7.8 | 9.6 | 0.00 | 0.01 | 0.01 | 21 | 1021.0 |
| 20260507035715 | 51 | 74 | 6.1 | 8.7 | 0.00 | 0.01 | 0.01 | 21 | 1021.0 |
| 20260507035249 | 51 | 73 | 4.3 | 7.8 | 0.00 | 0.01 | 0.01 | 21 | 1021.0 |
| 20260507034721 | 52 | 73 | 4.3 | 8.7 | 0.00 | 0.01 | 0.01 | 19 | 1020.9 |
| 20260507034215 | 52 | 73 | 4.3 | 8.7 | 0.00 | 0.01 | 0.01 | 19 | 1020.9 |
| 20260507033713 | 52 | 63 | 6.1 | 8.7 | 0.00 | 0.01 | 0.01 | 20 | 1020.9 |
| 20260507033227 | 52 | 54 | 4.3 | 6.1 | 0.00 | 0.01 | 0.01 | 20 | 1020.9 |
| 20260507032721 | 52 | 54 | 4.3 | 8.7 | 0.00 | 0.01 | 0.01 | 19 | 1020.7 |
| 20260507032215 | 52 | 54 | 4.3 | 8.7 | 0.00 | 0.01 | 0.01 | 20 | 1020.7 |
| 20260507031748 | 53 | 53 | 5.2 | 7.8 | 0.00 | 0.01 | 0.01 | 19 | 1020.6 |
| 20260507030715 | 53 | 47 | 3.5 | 6.1 | 0.00 | 0.01 | 0.01 | 19 | 1020.4 |
| 20260507030231 | 53 | 47 | 5.2 | 7.8 | 0.00 | 0.01 | 0.01 | 18 | 1020.4 |
| 20260507025725 | 53 | 47 | 4.3 | 7.8 | 0.00 | 0.01 | 0.01 | 18 | 1020.3 |
| 20260507025223 | 53 | 47 | 5.2 | 7.8 | 0.00 | 0.01 | 0.01 | 18 | 1020.2 |
| 20260507024717 | 54 | 44 | 3.5 | 5.2 | 0.00 | 0.01 | 0.01 | 17 | 1020.2 |
| 20260507024251 | 55 | 44 | 0.0 | 2.6 | 0.00 | 0.01 | 0.01 | 16 | 1020.1 |
| 20260507023744 | 55 | 44 | 0.9 | 2.6 | 0.00 | 0.01 | 0.01 | 17 | 1020.1 |
| 20260507023218 | 55 | 44 | 0.9 | 3.5 | 0.00 | 0.01 | 0.01 | 18 | 1020.1 |
| 20260507022731 | 55 | 44 | 0.0 | 4.3 | 0.00 | 0.01 | 0.01 | 17 | 1020.1 |
| 20260507022245 | 56 | 44 | 2.6 | 5.2 | 0.00 | 0.01 | 0.01 | 16 | 1020.1 |
| 20260507021719 | 57 | 44 | 4.3 | 6.1 | 0.00 | 0.01 | 0.01 | 14 | 1020.1 |
| 20260507021213 | 57 | 44 | 4.3 | 7.8 | 0.00 | 0.01 | 0.01 | 14 | 1020.2 |
| 20260507020730 | 58 | 44 | 4.3 | 7.8 | 0.00 | 0.01 | 0.01 | 13 | 1020.2 |
| 20260507020246 | 58 | 44 | 5.2 | 7.8 | 0.00 | 0.01 | 0.01 | 13 | 1020.1 |
| 20260507015718 | 59 | 42 | 4.3 | 8.7 | 0.00 | 0.01 | 0.01 | 12 | 1020.2 |
| 20260507015232 | 60 | 42 | 3.5 | 10.4 | 0.00 | 0.01 | 0.01 | 12 | 1020.3 |
| 20260507014745 | 60 | 42 | 6.1 | 10.4 | 0.00 | 0.01 | 0.01 | 12 | 1020.3 |
| 20260507014219 | 60 | 22 | 4.3 | 7.8 | 0.00 | 0.01 | 0.01 | 12 | 1020.3 |
| 20260507013732 | 61 | 22 | 3.5 | 7.8 | 0.00 | 0.01 | 0.01 | 12 | 1020.3 |
| 20260507013226 | 61 | 22 | 3.5 | 13.0 | 0.00 | 0.01 | 0.01 | 12 | 1020.3 |
| 20260507012720 | 61 | 22 | 3.5 | 13.0 | 0.00 | 0.01 | 0.01 | 11 | 1020.2 |
| 20260507012219 | 61 | 30 | 5.2 | 10.4 | 0.00 | 0.01 | 0.01 | 11 | 1020.2 |
| 20260507011713 | 62 | 31 | 6.1 | 11.3 | 0.00 | 0.01 | 0.01 | 11 | 1020.1 |
| 20260507011248 | 62 | 26 | 7.0 | 11.3 | 0.00 | 0.01 | 0.01 | 10 | 1020.1 |
| 20260507010721 | 62 | 24 | 7.0 | 11.3 | 0.00 | 0.01 | 0.01 | 11 | 1020.1 |
| 20260507010216 | 62 | 28 | 4.3 | 11.3 | 0.00 | 0.01 | 0.01 | 10 | 1020.1 |
| 20260507005730 | 62 | 27 | 5.2 | 11.3 | 0.00 | 0.01 | 0.01 | 10 | 1020.2 |
| 20260507005223 | 62 | 26 | 6.1 | 11.3 | 0.00 | 0.01 | 0.01 | 10 | 1020.2 |
| 20260507004717 | 63 | 24 | 7.8 | 13.0 | 0.00 | 0.01 | 0.01 | 10 | 1020.1 |
| 20260507004230 | 63 | 33 | 4.3 | 13.0 | 0.00 | 0.01 | 0.01 | 10 | 1020.0 |
| 20260507003728 | 63 | 44 | 7.8 | 13.0 | 0.00 | 0.01 | 0.01 | 11 | 1020.1 |
| 20260507003222 | 63 | 30 | 5.2 | 13.0 | 0.00 | 0.01 | 0.01 | 11 | 1020.1 |
| 20260507002717 | 63 | 21 | 9.6 | 16.5 | 0.00 | 0.01 | 0.01 | 10 | 1020.0 |
| 20260507002231 | 63 | 21 | 8.7 | 16.5 | 0.00 | 0.01 | 0.01 | 11 | 1019.9 |
| 20260507001726 | 63 | 36 | 5.2 | 12.2 | 0.00 | 0.01 | 0.01 | 10 | 1019.9 |
| 20260507001221 | 63 | 19 | 6.1 | 13.0 | 0.00 | 0.01 | 0.01 | 9 | 1019.8 |
| 20260507000734 | 64 | 360 | 8.7 | 13.0 | 0.00 | 0.01 | 0.01 | 12 | 1019.8 |
| 20260507000229 | 63 | 49 | 5.2 | 13.0 | 0.00 | 0.01 | 0.01 | 10 | 1019.7 |
| 20260506235742 | 64 | 45 | 7.8 | 12.2 | 0.00 | 0.01 | 0.01 | 11 | 1019.7 |
| 20260506235220 | 64 | 336 | 6.1 | 15.6 | 0.00 | 0.01 | 0.01 | 9 | 1019.7 |
| 20260506234714 | 64 | 26 | 7.8 | 16.5 | 0.00 | 0.01 | 0.01 | 10 | 1019.8 |
| 20260506234228 | 64 | 40 | 9.6 | 16.5 | 0.00 | 0.01 | 0.01 | 10 | 1019.7 |
| 20260506233722 | 65 | 44 | 7.8 | 15.6 | 0.00 | 0.01 | 0.01 | 9 | 1019.7 |
| 20260506233216 | 64 | 40 | 6.1 | 15.6 | 0.00 | 0.01 | 0.01 | 9 | 1019.7 |
| 20260506232730 | 64 | 49 | 7.8 | 17.4 | 0.00 | 0.01 | 0.01 | 8 | 1019.6 |
| 20260506232223 | 65 | 14 | 7.8 | 17.4 | 0.00 | 0.01 | 0.01 | 9 | 1019.7 |
| 20260506231717 | 64 | 17 | 7.0 | 17.4 | 0.00 | 0.01 | 0.01 | 11 | 1019.5 |
| 20260506231215 | 64 | 344 | 7.0 | 15.6 | 0.00 | 0.01 | 0.01 | 10 | 1019.7 |
| 20260506230729 | 64 | 360 | 4.3 | 15.6 | 0.00 | 0.01 | 0.01 | 11 | 1019.8 |
| 20260506230224 | 64 | 41 | 8.7 | 14.8 | 0.00 | 0.01 | 0.01 | 12 | 1019.8 |
| 20260506225718 | 65 | 340 | 7.0 | 14.8 | 0.00 | 0.01 | 0.01 | 9 | 1019.8 |
| 20260506225251 | 65 | 15 | 7.8 | 13.0 | 0.00 | 0.01 | 0.01 | 11 | 1019.7 |
| 20260506224724 | 65 | 5 | 7.0 | 14.8 | 0.00 | 0.01 | 0.01 | 11 | 1019.7 |
| 20260506224218 | 64 | 16 | 7.0 | 14.8 | 0.00 | 0.01 | 0.01 | 9 | 1019.6 |
| 20260506223732 | 65 | 344 | 7.8 | 14.8 | 0.00 | 0.01 | 0.01 | 10 | 1019.6 |
| 20260506223227 | 64 | 9 | 6.1 | 14.8 | 0.00 | 0.01 | 0.01 | 11 | 1019.6 |
| 20260506222724 | 64 | 26 | 7.8 | 16.5 | 0.00 | 0.01 | 0.01 | 12 | 1019.7 |
| 20260506222218 | 65 | 19 | 10.4 | 16.5 | 0.00 | 0.01 | 0.01 | 9 | 1019.7 |
| 20260506221732 | 64 | 30 | 8.7 | 16.5 | 0.00 | 0.01 | 0.01 | 11 | 1019.7 |
| 20260506221226 | 64 | 5 | 9.6 | 20.9 | 0.00 | 0.01 | 0.01 | 9 | 1019.7 |
| 20260506220720 | 65 | 11 | 10.4 | 20.9 | 0.00 | 0.01 | 0.01 | 10 | 1019.7 |
| 20260506220216 | 64 | 18 | 7.8 | 18.2 | 0.00 | 0.01 | 0.01 | 11 | 1019.7 |
| 20260506215730 | 64 | 18 | 9.6 | 17.4 | 0.00 | 0.01 | 0.01 | 11 | 1019.8 |
| 20260506215228 | 64 | 339 | 8.7 | 15.6 | 0.00 | 0.01 | 0.01 | 12 | 1019.8 |
| 20260506214722 | 64 | 13 | 5.2 | 14.8 | 0.00 | 0.01 | 0.01 | 11 | 1019.9 |
| 20260506214216 | 64 | 33 | 7.0 | 15.6 | 0.00 | 0.01 | 0.01 | 11 | 1019.9 |
| 20260506213750 | 64 | 28 | 10.4 | 15.6 | 0.00 | 0.01 | 0.01 | 10 | 1020.1 |
| 20260506213223 | 64 | 319 | 6.1 | 13.9 | 0.00 | 0.01 | 0.01 | 15 | 1020.2 |
| 20260506212716 | 64 | 18 | 7.0 | 15.6 | 0.00 | 0.01 | 0.01 | 12 | 1020.2 |
| 20260506212230 | 63 | 13 | 10.4 | 15.6 | 0.00 | 0.01 | 0.01 | 10 | 1020.3 |
| 20260506211725 | 63 | 327 | 9.6 | 16.5 | 0.00 | 0.01 | 0.01 | 11 | 1020.2 |
| 20260506211223 | 64 | 42 | 9.6 | 17.4 | 0.00 | 0.01 | 0.01 | 12 | 1020.1 |
| 20260506210717 | 64 | 5 | 7.8 | 17.4 | 0.00 | 0.01 | 0.01 | 12 | 1020.1 |
| 20260506210233 | 63 | 14 | 8.7 | 16.5 | 0.00 | 0.01 | 0.01 | 11 | 1020.1 |
| 20260506205726 | 64 | 344 | 8.7 | 16.5 | 0.00 | 0.01 | 0.01 | 12 | 1020.1 |
| 20260506205241 | 63 | 42 | 9.6 | 16.5 | 0.00 | 0.01 | 0.01 | 11 | 1020.1 |
| 20260506204754 | 64 | 322 | 7.8 | 15.6 | 0.00 | 0.01 | 0.01 | 12 | 1020.1 |
| 20260506204227 | 63 | 344 | 9.6 | 15.6 | 0.00 | 0.01 | 0.01 | 13 | 1020.2 |
| 20260506203720 | 63 | 34 | 6.1 | 14.8 | 0.00 | 0.01 | 0.01 | 10 | 1020.2 |
| 20260506203215 | 63 | 344 | 7.8 | 16.5 | 0.00 | 0.01 | 0.01 | 13 | 1020.2 |
| 20260506202733 | 63 | 307 | 9.6 | 16.5 | 0.00 | 0.01 | 0.01 | 12 | 1020.2 |
| 20260506202227 | 63 | 38 | 8.7 | 18.2 | 0.00 | 0.01 | 0.01 | 12 | 1020.2 |
| 20260506201720 | 63 | 32 | 10.4 | 19.1 | 0.00 | 0.01 | 0.01 | 13 | 1020.1 |
| 20260506201253 | 62 | 9 | 10.4 | 22.6 | 0.00 | 0.01 | 0.01 | 13 | 1020.1 |
| 20260506200726 | 62 | 344 | 11.3 | 22.6 | 0.00 | 0.01 | 0.01 | 12 | 1020.0 |
| 20260506200221 | 63 | 331 | 7.8 | 17.4 | 0.00 | 0.01 | 0.01 | 14 | 1020.2 |
| 20260506195715 | 63 | 51 | 9.6 | 19.1 | 0.00 | 0.01 | 0.01 | 12 | 1020.1 |
| 20260506195229 | 62 | 44 | 7.8 | 19.1 | 0.00 | 0.01 | 0.01 | 14 | 1020.1 |
| 20260506194726 | 62 | 342 | 10.4 | 19.1 | 0.00 | 0.01 | 0.01 | 13 | 1020.2 |
| 20260506194221 | 62 | 5 | 9.6 | 17.4 | 0.00 | 0.01 | 0.01 | 12 | 1020.2 |
| 20260506193735 | 62 | 15 | 9.6 | 17.4 | 0.00 | 0.01 | 0.01 | 12 | 1020.1 |
| 20260506193228 | 62 | 344 | 12.2 | 22.6 | 0.00 | 0.01 | 0.01 | 13 | 1020.0 |
| 20260506192721 | 62 | 27 | 11.3 | 25.2 | 0.00 | 0.01 | 0.01 | 12 | 1019.9 |
| 20260506192215 | 61 | 38 | 15.6 | 25.2 | 0.00 | 0.01 | 0.01 | 11 | 1019.8 |
| 20260506191729 | 62 | 35 | 13.0 | 21.7 | 0.00 | 0.01 | 0.01 | 13 | 1019.9 |
| 20260506191223 | 62 | 24 | 14.8 | 26.1 | 0.00 | 0.01 | 0.01 | 11 | 1019.9 |
| 20260506190716 | 61 | 331 | 13.9 | 26.1 | 0.00 | 0.01 | 0.01 | 12 | 1019.8 |
| 20260506190214 | 61 | 19 | 13.0 | 22.6 | 0.00 | 0.01 | 0.01 | 12 | 1019.9 |
| 20260506185728 | 61 | 31 | 15.6 | 23.5 | 0.00 | 0.01 | 0.01 | 12 | 1019.9 |
| 20260506185242 | 61 | 17 | 13.0 | 26.9 | 0.00 | 0.01 | 0.01 | 13 | 1019.9 |
| 20260506184716 | 61 | 59 | 18.2 | 26.9 | 0.00 | 0.01 | 0.01 | 13 | 1019.9 |
| 20260506184251 | 62 | 16 | 10.4 | 26.1 | 0.00 | 0.01 | 0.01 | 14 | 1019.8 |
| 20260506183724 | 63 | 27 | 14.8 | 26.1 | 0.00 | 0.01 | 0.01 | 13 | 1019.7 |
| 20260506183218 | 62 | 11 | 10.4 | 20.0 | 0.00 | 0.01 | 0.01 | 14 | 1019.8 |
| 20260506182731 | 62 | 298 | 5.2 | 19.1 | 0.00 | 0.01 | 0.01 | 17 | 1019.8 |
| 20260506182226 | 61 | 9 | 7.0 | 15.6 | 0.00 | 0.01 | 0.01 | 17 | 1020.0 |
| 20260506181739 | 61 | 344 | 6.1 | 18.2 | 0.00 | 0.01 | 0.01 | 17 | 1020.0 |
| 20260506181217 | 60 | 311 | 13.0 | 18.2 | 0.00 | 0.01 | 0.01 | 17 | 1020.0 |
| 20260506180731 | 59 | 316 | 10.4 | 24.3 | 0.00 | 0.01 | 0.01 | 19 | 1019.9 |
| 20260506180226 | 59 | 315 | 8.7 | 24.3 | 0.00 | 0.01 | 0.01 | 18 | 1019.9 |
| 20260506175719 | 59 | 34 | 8.7 | 18.2 | 0.00 | 0.01 | 0.01 | 19 | 1020.0 |
| 20260506175252 | 58 | 11 | 7.0 | 18.2 | 0.00 | 0.01 | 0.01 | 18 | 1020.0 |
| 20260506174744 | 56 | 319 | 10.4 | 20.0 | 0.00 | 0.01 | 0.01 | 18 | 1019.9 |
| 20260506174218 | 56 | 360 | 13.0 | 20.0 | 0.00 | 0.01 | 0.01 | 17 | 1019.8 |
| 20260506173731 | 57 | 335 | 8.7 | 18.2 | 0.00 | 0.01 | 0.01 | 16 | 1019.8 |
| 20260506173226 | 58 | 41 | 8.7 | 20.9 | 0.00 | 0.01 | 0.01 | 18 | 1019.7 |
| 20260506172723 | 59 | 42 | 11.3 | 20.9 | 0.00 | 0.01 | 0.01 | 15 | 1019.5 |
| 20260506172217 | 60 | 42 | 9.6 | 18.2 | 0.00 | 0.01 | 0.01 | 15 | 1019.5 |
| 20260506171731 | 59 | 360 | 6.1 | 16.5 | 0.00 | 0.01 | 0.01 | 17 | 1019.4 |
| 20260506171225 | 58 | 360 | 7.8 | 16.5 | 0.00 | 0.01 | 0.01 | 18 | 1019.4 |
| 20260506170719 | 58 | 45 | 8.7 | 15.6 | 0.00 | 0.01 | 0.01 | 20 | 1019.4 |
| 20260506170236 | 58 | 344 | 8.7 | 15.6 | 0.00 | 0.01 | 0.01 | 19 | 1019.3 |
| 20260506165728 | 58 | 9 | 7.8 | 17.4 | 0.00 | 0.01 | 0.01 | 19 | 1019.1 |
| 20260506165222 | 58 | 33 | 7.0 | 20.0 | 0.00 | 0.01 | 0.01 | 22 | 1019.1 |
| 20260506164720 | 57 | 28 | 12.2 | 21.7 | 0.00 | 0.01 | 0.01 | 18 | 1019.0 |
| 20260506164214 | 57 | 338 | 11.3 | 21.7 | 0.00 | 0.01 | 0.01 | 19 | 1019.0 |
| 20260506163727 | 57 | 327 | 12.2 | 18.2 | 0.00 | 0.01 | 0.01 | 19 | 1019.0 |
| 20260506163222 | 57 | 5 | 11.3 | 16.5 | 0.00 | 0.01 | 0.01 | 20 | 1018.9 |
| 20260506162715 | 57 | 36 | 4.3 | 13.0 | 0.00 | 0.01 | 0.01 | 32 | 1018.8 |
| 20260506162230 | 56 | 36 | 7.0 | 14.8 | 0.00 | 0.01 | 0.01 | 33 | 1018.8 |
| 20260506161743 | 55 | 37 | 6.1 | 14.8 | 0.00 | 0.01 | 0.01 | 34 | 1018.8 |
| 20260506161217 | 54 | 30 | 4.3 | 11.3 | 0.00 | 0.01 | 0.01 | 34 | 1018.8 |
| 20260506160715 | 52 | 37 | 7.0 | 13.0 | 0.00 | 0.01 | 0.01 | 35 | 1018.8 |
| 20260506160229 | 51 | 39 | 7.8 | 13.0 | 0.00 | 0.01 | 0.01 | 35 | 1018.7 |
| 20260506155722 | 51 | 54 | 7.8 | 12.2 | 0.00 | 0.01 | 0.01 | 33 | 1018.7 |
| 20260506155217 | 51 | 71 | 7.8 | 11.3 | 0.00 | 0.01 | 0.01 | 36 | 1018.7 |
| 20260506154751 | 50 | 91 | 5.2 | 10.4 | 0.00 | 0.01 | 0.01 | 38 | 1018.6 |
| 20260506154224 | 50 | 92 | 5.2 | 10.4 | 0.00 | 0.01 | 0.01 | 39 | 1018.6 |
| 20260506153716 | 50 | 95 | 4.3 | 9.6 | 0.00 | 0.01 | 0.01 | 42 | 1018.5 |
| 20260506153231 | 51 | 96 | 4.3 | 7.8 | 0.00 | 0.01 | 0.01 | 45 | 1018.5 |
| 20260506152745 | 51 | 96 | 4.3 | 7.8 | 0.00 | 0.01 | 0.01 | 44 | 1018.4 |
| 20260506152222 | 50 | 95 | 2.6 | 7.8 | 0.00 | 0.01 | 0.01 | 47 | 1018.3 |
| 20260506151716 | 51 | 95 | 2.6 | 9.6 | 0.00 | 0.01 | 0.01 | 48 | 1018.3 |
| 20260506151230 | 51 | 96 | 6.1 | 9.6 | 0.00 | 0.01 | 0.01 | 46 | 1018.1 |
| 20260506150724 | 50 | 96 | 5.2 | 8.7 | 0.00 | 0.01 | 0.01 | 49 | 1018.1 |
| 20260506150240 | 51 | 96 | 5.2 | 9.6 | 0.00 | 0.01 | 0.01 | 47 | 1018.0 |
| 20260506145732 | 50 | 96 | 6.1 | 9.6 | 0.00 | 0.01 | 0.01 | 49 | 1017.9 |
| 20260506145227 | 50 | 96 | 6.1 | 9.6 | 0.00 | 0.01 | 0.01 | 49 | 1017.8 |
| 20260506144720 | 50 | 97 | 6.1 | 9.6 | 0.00 | 0.01 | 0.01 | 50 | 1017.8 |
| 20260506144235 | 50 | 101 | 3.5 | 8.7 | 0.00 | 0.01 | 0.01 | 53 | 1017.6 |
| 20260506143732 | 50 | 102 | 5.2 | 8.7 | 0.00 | 0.01 | 0.01 | 51 | 1017.6 |
| 20260506143225 | 50 | 103 | 3.5 | 7.8 | 0.00 | 0.01 | 0.01 | 51 | 1017.5 |
| 20260506142719 | 50 | 103 | 4.3 | 7.8 | 0.00 | 0.01 | 0.01 | 50 | 1017.4 |
| 20260506142214 | 50 | 103 | 4.3 | 7.8 | 0.00 | 0.01 | 0.01 | 51 | 1017.3 |
| 20260506141727 | 50 | 103 | 3.5 | 7.8 | 0.00 | 0.01 | 0.01 | 52 | 1017.3 |
| 20260506141221 | 50 | 103 | 3.5 | 7.0 | 0.00 | 0.01 | 0.01 | 54 | 1017.3 |
| 20260506140735 | 49 | 103 | 3.5 | 7.0 | 0.00 | 0.01 | 0.01 | 54 | 1017.2 |
| 20260506140250 | 49 | 103 | 3.5 | 7.0 | 0.00 | 0.01 | 0.01 | 56 | 1017.1 |
| 20260506135723 | 49 | 103 | 1.7 | 5.2 | 0.00 | 0.01 | 0.01 | 59 | 1017.0 |
| 20260506135221 | 48 | 103 | 2.6 | 5.2 | 0.00 | 0.01 | 0.01 | 61 | 1016.9 |
| 20260506134715 | 48 | 103 | 2.6 | 6.1 | 0.00 | 0.01 | 0.01 | 62 | 1016.9 |
| 20260506134229 | 47 | 103 | 3.5 | 6.1 | 0.00 | 0.01 | 0.01 | 65 | 1016.9 |
| 20260506133744 | 47 | 103 | 1.7 | 7.0 | 0.00 | 0.01 | 0.01 | 67 | 1016.8 |
| 20260506133217 | 46 | 103 | 1.7 | 7.0 | 0.00 | 0.01 | 0.01 | 67 | 1016.7 |
| 20260506132730 | 46 | 103 | 1.7 | 5.2 | 0.00 | 0.01 | 0.01 | 68 | 1016.6 |
| 20260506132225 | 46 | 103 | 1.7 | 5.2 | 0.00 | 0.01 | 0.01 | 68 | 1016.6 |
| 20260506131718 | 46 | 103 | 0.9 | 5.2 | 0.00 | 0.01 | 0.01 | 68 | 1016.5 |
| 20260506131236 | 46 | 103 | 2.6 | 5.2 | 0.00 | 0.01 | 0.01 | 67 | 1016.4 |
| 20260506130729 | 46 | 103 | 1.7 | 3.5 | 0.00 | 0.01 | 0.01 | 67 | 1016.4 |
| 20260506130224 | 46 | 103 | 1.7 | 5.2 | 0.00 | 0.01 | 0.01 | 66 | 1016.2 |
| 20260506125717 | 47 | 103 | 2.6 | 5.2 | 0.00 | 0.01 | 0.01 | 64 | 1016.1 |
| 20260506125251 | 47 | 103 | 2.6 | 5.2 | 0.00 | 0.01 | 0.01 | 63 | 1016.0 |
| 20260506124724 | 47 | 103 | 2.6 | 7.0 | 0.00 | 0.01 | 0.01 | 62 | 1015.9 |
| 20260506124218 | 48 | 103 | 4.3 | 7.0 | 0.00 | 0.01 | 0.01 | 61 | 1015.8 |
| 20260506123732 | 48 | 103 | 2.6 | 5.2 | 0.00 | 0.01 | 0.01 | 59 | 1015.6 |
| 20260506123226 | 49 | 103 | 0.9 | 5.2 | 0.00 | 0.01 | 0.01 | 58 | 1015.4 |
| 20260506122725 | 49 | 103 | 2.6 | 5.2 | 0.00 | 0.01 | 0.01 | 57 | 1015.3 |
| 20260506122219 | 49 | 103 | 0.9 | 5.2 | 0.00 | 0.01 | 0.01 | 57 | 1015.2 |
| 20260506121733 | 49 | 103 | 2.6 | 5.2 | 0.00 | 0.01 | 0.01 | 58 | 1015.3 |
| 20260506121227 | 49 | 103 | 0.0 | 2.6 | 0.00 | 0.01 | 0.01 | 59 | 1015.1 |
| 20260506120741 | 49 | 103 | 0.0 | 2.6 | 0.00 | 0.01 | 0.01 | 58 | 1014.9 |
| 20260506120216 | 49 | 103 | 0.9 | 3.5 | 0.00 | 0.01 | 0.01 | 58 | 1014.8 |
| 20260506115729 | 49 | 103 | 1.7 | 3.5 | 0.00 | 0.01 | 0.01 | 59 | 1014.7 |
| 20260506115244 | 49 | 103 | 1.7 | 6.1 | 0.00 | 0.01 | 0.01 | 59 | 1014.6 |
| 20260506114720 | 49 | 103 | 2.6 | 6.1 | 0.00 | 0.01 | 0.01 | 58 | 1014.5 |
| 20260506114215 | 49 | 103 | 2.6 | 5.2 | 0.00 | 0.01 | 0.01 | 59 | 1014.4 |
| 20260506113728 | 49 | 103 | 2.6 | 6.1 | 0.00 | 0.01 | 0.01 | 59 | 1014.4 |
| 20260506113222 | 49 | 103 | 3.5 | 6.1 | 0.00 | 0.01 | 0.01 | 59 | 1014.3 |
| 20260506112736 | 48 | 103 | 2.6 | 5.2 | 0.00 | 0.01 | 0.01 | 60 | 1014.2 |
| 20260506112229 | 48 | 103 | 1.7 | 5.2 | 0.00 | 0.01 | 0.01 | 62 | 1014.0 |
| 20260506111723 | 48 | 103 | 0.0 | 1.7 | 0.00 | 0.01 | 0.01 | 62 | 1014.1 |
| 20260506111217 | 48 | 103 | 0.9 | 6.1 | 0.00 | 0.01 | 0.01 | 61 | 1014.0 |
| 20260506110751 | 49 | 103 | 1.7 | 7.0 | 0.00 | 0.01 | 0.01 | 61 | 1013.8 |
| 20260506110229 | 49 | 103 | 3.5 | 7.0 | 0.00 | 0.01 | 0.01 | 62 | 1013.7 |
| 20260506105723 | 49 | 103 | 2.6 | 6.1 | 0.00 | 0.01 | 0.01 | 61 | 1013.7 |
| 20260506105217 | 49 | 103 | 4.3 | 6.1 | 0.00 | 0.01 | 0.01 | 60 | 1013.7 |
| 20260506104731 | 49 | 103 | 2.6 | 6.1 | 0.00 | 0.01 | 0.01 | 60 | 1013.6 |
| 20260506104225 | 49 | 103 | 1.7 | 8.7 | 0.00 | 0.01 | 0.01 | 58 | 1013.4 |
| 20260506103719 | 49 | 103 | 4.3 | 8.7 | 0.00 | 0.01 | 0.01 | 60 | 1013.3 |
| 20260506103232 | 49 | 103 | 4.3 | 7.8 | 0.00 | 0.01 | 0.01 | 58 | 1013.3 |
| 20260506102726 | 49 | 103 | 5.2 | 8.7 | 0.00 | 0.01 | 0.01 | 58 | 1013.3 |
| 20260506102223 | 49 | 103 | 5.2 | 9.6 | 0.00 | 0.01 | 0.01 | 59 | 1013.3 |
| 20260506101716 | 48 | 103 | 7.0 | 9.6 | 0.00 | 0.01 | 0.01 | 61 | 1013.2 |
| 20260506101231 | 48 | 103 | 6.1 | 12.2 | 0.00 | 0.01 | 0.01 | 61 | 1013.2 |
| 20260506100725 | 48 | 103 | 6.1 | 12.2 | 0.01 | 0.01 | 0.01 | 60 | 1013.1 |
| 20260506100241 | 47 | 100 | 7.8 | 12.2 | 0.01 | 0.01 | 0.01 | 63 | 1013.0 |
| 20260506095754 | 48 | 75 | 5.2 | 9.6 | 0.01 | 0.01 | 0.01 | 62 | 1013.0 |
| 20260506095247 | 48 | 75 | 6.1 | 9.6 | 0.01 | 0.01 | 0.01 | 62 | 1013.0 |
| 20260506094720 | 48 | 75 | 6.1 | 9.6 | 0.01 | 0.01 | 0.01 | 62 | 1013.0 |
| 20260506094213 | 48 | 75 | 6.1 | 8.7 | 0.01 | 0.01 | 0.01 | 62 | 1013.1 |
| 20260506093727 | 48 | 75 | 6.1 | 8.7 | 0.01 | 0.01 | 0.01 | 62 | 1013.2 |
| 20260506093245 | 47 | 75 | 4.3 | 8.7 | 0.01 | 0.01 | 0.01 | 63 | 1013.4 |
| 20260506092738 | 47 | 75 | 3.5 | 9.6 | 0.01 | 0.01 | 0.01 | 63 | 1013.3 |
| 20260506092232 | 48 | 75 | 6.1 | 13.0 | 0.01 | 0.01 | 0.01 | 63 | 1013.4 |
| 20260506091725 | 48 | 75 | 6.1 | 13.0 | 0.01 | 0.01 | 0.01 | 62 | 1013.5 |
| 20260506091219 | 48 | 323 | 7.0 | 8.7 | 0.01 | 0.01 | 0.01 | 62 | 1013.5 |
| 20260506090713 | 47 | 323 | 0.9 | 3.5 | 0.00 | 0.00 | 0.00 | 62 | 1014.0 |
| 20260506090229 | 47 | 323 | 0.9 | 4.3 | 0.00 | 0.00 | 0.00 | 62 | 1014.1 |
| 20260506085742 | 47 | 323 | 2.6 | 4.3 | 0.00 | 0.00 | 0.00 | 62 | 1014.0 |
| 20260506085215 | 47 | 323 | 2.6 | 7.8 | 0.00 | 0.00 | 0.00 | 63 | 1014.0 |
| 20260506084714 | 47 | 323 | 4.3 | 7.8 | 0.00 | 0.00 | 0.00 | 63 | 1013.8 |
| 20260506084228 | 47 | 323 | 3.5 | 5.2 | 0.00 | 0.00 | 0.00 | 62 | 1013.9 |
| 20260506083722 | 47 | 323 | 2.6 | 5.2 | 0.00 | 0.00 | 0.00 | 60 | 1014.0 |
| 20260506083216 | 47 | 323 | 2.6 | 8.7 | 0.00 | 0.00 | 0.00 | 59 | 1014.1 |
| 20260506082730 | 48 | 323 | 3.5 | 8.7 | 0.00 | 0.00 | 0.00 | 59 | 1014.0 |
| 20260506082223 | 48 | 323 | 4.3 | 13.0 | 0.00 | 0.00 | 0.00 | 56 | 1013.9 |
| 20260506081717 | 49 | 323 | 6.1 | 13.0 | 0.00 | 0.00 | 0.00 | 55 | 1013.8 |
| 20260506081231 | 49 | 306 | 7.0 | 13.9 | 0.00 | 0.00 | 0.00 | 52 | 1013.7 |
| 20260506080725 | 51 | 269 | 6.1 | 13.9 | 0.00 | 0.00 | 0.00 | 48 | 1013.5 |